Theta_e
330 330 330 328 329 329 329 328 327 326 326 321 320 319 321 321 317 318 318 319 319 319 320 320 325 327 336 338 338 338 340 342 342 339 339 339 339 328
326 328 330 330 330 327 327 329 328 326 326 323 320 321 321 322 319 317 317 318 318 318 318 319 321 326 327 335 338 338 338 338 342 342 339 339 339 337
326 327 326 327 328 328 328 328 328 324 325 322 323 321 320 321 321 317 317 318 318 318 318 319 319 321 326 328 334 337 338 337 337 341 340 338 338 336
330 330 326 327 325 327 328 326 324 324 326 325 322 322 323 323 322 318 319 319 318 317 318 318 318 320 322 327 329 335 337 336 336 340 339 342 339 337
326 325 324 323 322 322 322 322 321 321 323 324 323 322 322 321 320 319 319 319 318 317 318 317 318 319 321 323 328 331 334 334 335 339 338 341 342 338
326 323 324 321 321 322 323 323 323 320 321 322 322 321 322 321 320 319 319 318 316 318 318 317 318 319 320 323 325 331 331 333 335 335 335 340 341 339
326 324 322 322 320 320 321 322 322 321 321 321 321 320 321 320 320 319 319 318 317 318 316 317 318 319 321 322 326 328 332 332 335 335 335 340 342 342
326 324 324 323 320 320 320 320 320 320 322 321 321 321 320 320 320 320 319 318 318 317 316 317 318 319 320 321 327 331 333 333 333 334 335 338 341 342
326 326 326 324 321 321 320 320 320 321 322 321 321 321 321 321 320 320 319 319 318 316 317 318 319 319 320 320 323 331 333 334 332 333 335 336 339 339
326 326 325 325 322 322 321 320 321 321 320 321 321 321 319 318 317 319 320 318 316 317 317 318 318 319 320 320 323 329 335 336 335 332 333 334 335 336
327 326 325 323 322 322 321 321 319 317 320 321 321 319 316 317 319 318 316 316 316 316 317 318 318 319 321 321 324 329 336 337 335 333 332 334 336 338
326 324 324 323 321 319 317 317 318 320 319 318 317 314 317 319 319 317 317 316 315 316 317 318 318 320 322 323 325 329 337 338 336 335 336 336 337 337
325 325 323 320 316 315 316 318 319 318 318 317 314 317 318 318 318 318 316 314 316 317 319 319 319 321 323 326 332 331 337 338 336 338 338 337 334 336
324 322 320 318 314 313 315 317 318 317 315 315 316 317 317 318 319 318 315 315 317 318 319 323 322 323 324 327 328 335 336 338 338 338 338 335 336 335
322 320 320 318 314 312 315 318 317 315 314 315 316 317 317 318 317 317 315 316 318 319 319 324 324 325 327 330 336 338 336 336 337 338 338 339 339 338
320 320 318 317 314 314 317 318 315 313 314 314 314 314 314 314 315 315 316 319 318 318 320 325 327 326 327 331 335 337 337 337 337 337 339 339 338 337
318 318 316 314 315 316 317 314 312 313 312 310 309 309 310 310 312 315 316 318 318 318 319 321 326 328 329 331 335 337 335 336 337 338 337 338 337 340
317 315 313 313 315 315 313 312 312 311 309 309 308 307 307 307 309 314 317 319 318 317 318 319 322 327 329 330 334 336 335 334 335 337 337 337 339 341
314 311 311 312 312 311 310 310 310 309 307 307 305 305 304 305 308 314 317 319 318 317 316 317 320 322 326 326 329 333 332 335 334 337 337 338 338 340
312 311 311 311 310 309 309 309 306 305 301 301 302 302 302 302 305 313 316 319 317 318 316 317 318 320 320 321 321 322 331 335 336 337 337 337 337 336
311 310 310 310 308 308 308 306 306 301 297 300 300 300 300 300 302 310 315 318 319 317 317 317 316 320 320 319 319 319 322 332 335 336 336 336 338 337
308 309 308 307 306 306 305 304 298 295 298 299 299 299 299 299 300 306 312 316 317 318 317 317 317 316 317 317 320 319 318 320 324 332 334 335 336 335
307 307 306 305 303 301 299 295 296 297 298 298 298 298 298 298 299 301 308 313 316 317 319 319 318 317 318 316 317 319 320 319 318 321 326 331 333 332
Wind_Speed
12 13 14 15 16 16 18 19 19 23 27 25 28 25 23 24 21 24 25 23 23 26 28 29 31 37 39 39 39 38 37 38 37 36 35 34 32 32
15 16 17 18 18 19 20 20 22 24 31 30 28 26 27 26 26 27 28 28 30 31 29 29 32 34 40 42 42 43 41 41 42 39 37 37 36 34
14 17 16 17 18 19 20 22 23 24 30 34 32 28 30 31 30 30 31 33 36 36 35 34 33 34 37 43 43 44 46 43 45 45 41 37 38 36
12 14 16 16 19 19 21 22 24 25 29 32 34 34 33 32 32 34 34 34 37 37 43 42 35 33 36 40 45 46 46 45 45 47 44 41 40 39
14 16 16 17 19 19 21 23 25 26 29 31 34 36 37 34 35 34 37 38 40 46 48 49 43 34 34 38 44 47 47 46 44 48 45 43 42 41
17 17 17 17 19 21 23 25 26 27 28 29 32 37 37 35 36 38 41 40 44 48 52 56 48 40 32 35 42 47 48 47 44 46 47 45 42 39
18 18 18 19 20 24 27 26 25 28 29 30 32 34 37 36 39 39 41 44 47 51 55 54 48 51 37 30 35 44 47 48 46 47 47 48 46 44
21 21 21 23 21 20 19 23 27 28 29 30 31 31 35 39 39 40 42 46 47 43 49 57 47 46 43 38 32 34 44 47 48 46 48 48 48 44
22 23 25 24 25 22 23 26 27 26 27 28 29 32 36 38 40 42 41 46 51 58 53 59 46 47 42 41 35 36 39 41 44 46 48 47 47 46
25 25 25 26 26 25 27 26 27 27 26 27 28 31 34 37 37 37 38 44 52 48 49 52 48 47 43 40 35 39 36 37 40 42 45 47 43 45
23 24 25 26 26 27 26 27 28 26 24 26 28 31 34 31 27 27 32 43 45 52 50 45 47 45 42 42 36 39 34 34 36 39 40 43 42 42
20 23 23 26 25 22 23 24 23 21 25 28 30 33 29 24 23 24 36 45 47 58 48 42 43 37 31 37 35 39 34 31 32 36 38 39 42 39
21 20 22 23 20 19 19 20 21 22 26 30 32 30 27 24 23 26 33 43 49 54 47 44 38 31 31 21 14 36 34 32 32 35 36 40 40 40
21 21 20 19 19 21 20 19 19 24 28 28 26 26 25 23 25 25 36 43 52 40 37 28 23 23 29 27 22 23 30 31 32 34 36 39 36 39
20 18 18 19 20 20 19 17 20 25 26 23 23 23 23 26 29 29 36 38 48 37 37 17 15 17 13 17 16 16 16 28 30 32 36 38 40 43
19 18 20 21 20 18 16 17 22 22 21 22 21 22 24 26 29 29 37 40 45 48 38 14 13 19 26 10 6 16 15 11 29 30 33 36 37 39
18 19 19 17 14 14 15 20 20 18 18 19 20 22 24 26 30 28 29 35 39 47 44 25 6 15 16 14 8 9 17 18 14 27 30 33 34 36
16 18 15 12 12 15 18 17 15 15 17 19 20 22 24 26 29 28 26 29 34 40 45 40 18 2 8 13 12 12 16 22 28 19 30 32 36 36
13 14 12 13 16 16 14 13 14 16 18 19 20 20 23 23 25 25 24 25 28 33 39 43 38 19 5 7 7 13 12 19 25 24 24 26 28 29
10 11 12 14 14 11 12 14 14 16 17 17 18 18 20 21 23 22 22 21 23 26 32 37 37 33 26 16 13 14 16 18 21 22 23 22 21 20
12 12 10 9 9 11 13 14 17 17 15 14 15 16 17 19 20 20 20 19 18 19 23 28 30 32 27 26 33 25 18 16 18 18 16 15 16 17
8 7 7 8 10 11 13 15 14 11 9 9 11 13 15 18 20 19 18 19 20 14 13 15 18 18 25 34 31 31 24 33 16 13 17 15 14 12
7 6 6 8 11 12 12 10 8 7 7 7 10 12 14 17 18 19 16 14 15 17 16 13 14 19 22 26 25 31 30 31 27 36 18 12 17 15
Wind_Direction
280 291 292 297 296 297 298 298 299 302 307 313 317 318 319 322 324 323 324 326 326 318 307 289 280 262 256 252 245 242 244 247 246 245 246 243 241 242
282 285 286 291 289 290 294 296 297 300 299 305 311 312 310 315 322 318 318 318 322 324 319 303 285 274 258 253 249 245 243 244 244 243 244 244 241 240
288 289 290 295 292 291 291 293 294 297 300 304 309 310 307 308 316 318 318 319 321 323 327 318 299 278 266 253 249 247 245 246 241 240 242 239 241 237
294 293 297 298 298 295 293 291 290 289 291 298 304 307 306 308 309 311 317 319 321 323 328 325 308 284 269 258 248 246 245 245 244 235 238 238 238 238
290 294 297 298 298 295 296 294 293 291 290 291 297 303 305 307 310 308 314 314 316 321 324 325 317 300 274 262 251 244 243 243 244 234 235 236 237 239
288 292 291 297 295 295 292 293 292 292 291 292 294 299 302 308 307 309 309 312 314 317 317 321 318 308 284 269 255 244 240 241 242 236 232 232 233 233
288 288 287 294 303 301 294 295 289 292 292 294 297 300 301 305 306 307 305 308 309 317 319 316 311 309 292 272 260 245 239 238 239 234 232 229 230 233
289 288 289 290 300 300 304 296 289 291 291 293 295 295 300 301 302 302 302 303 307 312 311 307 304 298 292 272 254 246 240 238 237 235 233 230 228 229
286 287 286 287 294 293 296 295 287 289 290 291 292 298 300 303 302 299 298 300 302 307 314 305 298 291 285 282 257 240 235 236 236 233 231 230 230 230
284 285 282 287 292 296 296 293 290 290 289 287 293 298 300 303 296 296 298 302 306 305 306 291 299 286 284 276 264 235 232 230 231 231 229 229 234 228
288 287 286 289 294 299 295 289 290 292 290 293 299 302 306 304 296 297 306 315 306 305 305 293 295 285 276 272 264 226 225 225 223 226 227 222 229 223
284 288 290 293 298 293 293 293 293 298 303 303 308 311 313 307 295 290 309 316 311 306 306 296 291 281 267 269 249 216 219 219 217 220 218 224 216 217
286 287 289 291 295 296 297 294 298 305 313 313 315 318 319 316 311 306 318 322 321 308 318 308 285 268 263 257 239 209 215 216 211 212 213 212 211 216
282 287 288 291 298 300 297 298 306 315 316 314 318 321 325 329 328 320 330 337 331 325 330 320 259 252 254 242 248 212 219 218 213 213 212 207 213 214
282 285 288 292 295 294 295 299 309 315 313 315 322 327 331 331 329 323 341 345 346 355 348 299 258 254 225 244 236 244 212 215 214 216 211 205 207 205
283 286 289 294 294 294 295 302 311 312 313 318 324 326 330 333 332 337 343 350 350 2 11 343 265 251 254 247 275 236 222 220 210 210 211 209 212 215
284 287 288 291 287 293 297 304 306 307 310 315 325 330 333 335 336 344 344 354 358 3 3 10 333 262 252 250 269 231 220 224 210 211 208 210 209 207
284 284 287 286 290 293 301 309 311 311 313 320 329 331 334 340 339 345 351 357 1 9 7 15 10 222 258 263 251 244 222 226 229 233 209 211 208 207
278 281 283 290 294 299 302 312 318 320 319 320 326 333 337 343 344 350 355 1 7 16 9 17 27 40 351 328 242 237 234 218 216 223 204 202 206 208
288 281 285 291 293 293 302 311 317 320 320 321 329 339 342 347 348 354 359 0 10 17 20 19 26 41 45 31 24 9 229 209 205 206 203 203 204 203
285 283 285 283 287 296 305 311 318 321 325 331 337 344 350 353 354 356 1 3 6 21 30 25 24 34 47 52 47 42 57 212 199 200 198 205 201 208
286 282 284 288 295 302 308 312 318 325 336 340 349 355 2 4 2 1 2 3 10 14 27 28 36 33 29 35 40 32 55 73 81 223 199 204 200 212
272 272 283 293 299 304 310 318 332 346 354 355 357 0 4 11 12 7 5 7 12 10 15 25 39 47 46 44 39 35 44 54 70 84 108 168 214 231